Hourly Weather Almalyk

Today, 2 March, Tuesday

Time Temperature Precipitation Wind Pressure Humidity
00:00 +1°C° 0 mm 3 mps 692 mmHg 51%
01:00 +1°C° 0 mm 3 mps 692 mmHg 51%
02:00 +1°C° 0 mm 3 mps 692 mmHg 50%
03:00 +1°C° 0 mm 3 mps 692 mmHg 50%
04:00 +1°C° 0 mm 3 mps 692 mmHg 50%
05:00 +1°C° 0 mm 3 mps 692 mmHg 49%
06:00 +2°C° 0 mm 3 mps 693 mmHg 50%
07:00 +3°C° 0 mm 2 mps 693 mmHg 50%
08:00 +4°C° 0 mm 2 mps 693 mmHg 51%
09:00 +5°C° 0 mm 2 mps 693 mmHg 52%
10:00 +7°C° 0 mm 2 mps 693 mmHg 53%
11:00 +10°C° 0 mm 1 mps 692 mmHg 53%
12:00 +10°C° 0 mm 1 mps 692 mmHg 51%
13:00 +11°C° 0 mm 1 mps 691 mmHg 49%
14:00 +11°C° 0 mm 0 mps 691 mmHg 47%
15:00 +10°C° 0 mm 0 mps 691 mmHg 49%
16:00 +9°C° 0 mm 0 mps 690 mmHg 51%
17:00 +8°C° 0 mm 0 mps 690 mmHg 53%
18:00 +9°C° 0 mm 1 mps 691 mmHg 53%
19:00 +8°C° 0 mm 1 mps 691 mmHg 54%
20:00 +6°C° 0 mm 2 mps 691 mmHg 54%
21:00 +6°C° 0 mm 2 mps 691 mmHg 55%
22:00 +6°C° 0 mm 2 mps 691 mmHg 56%
23:00 +6°C° 0 mm 2 mps 691 mmHg 57%

Tomorrow, 3 March, Wednesday

Time Temperature Precipitation Wind Pressure Humidity
00:00 +5°C° 0 mm 2 mps 691 mmHg 59%
01:00 +5°C° 0 mm 2 mps 691 mmHg 61%
02:00 +5°C° 0 mm 2 mps 691 mmHg 63%
03:00 +5°C° 0 mm 2 mps 691 mmHg 65%
04:00 +5°C° 0 mm 2 mps 691 mmHg 67%
05:00 +5°C° 0 mm 2 mps 691 mmHg 69%
06:00 +6°C° 0 mm 1 mps 691 mmHg 71%
07:00 +6°C° 0 mm 1 mps 691 mmHg 73%
08:00 +6°C° 0 mm 1 mps 691 mmHg 76%
09:00 +6°C° 0.1 mm 1 mps 690 mmHg 78%
10:00 +6°C° 0.1 mm 1 mps 690 mmHg 80%
11:00 +7°C° 0.1 mm 1 mps 689 mmHg 83%
12:00 +7°C° 0.3 mm 1 mps 689 mmHg 84%
13:00 +7°C° 0.3 mm 1 mps 688 mmHg 85%
14:00 +7°C° 0.3 mm 1 mps 688 mmHg 87%
15:00 +6°C° 0.2 mm 1 mps 688 mmHg 88%
16:00 +5°C° 0.2 mm 2 mps 688 mmHg 89%
17:00 +5°C° 0.2 mm 2 mps 688 mmHg 90%
18:00 +5°C° 0.2 mm 2 mps 689 mmHg 90%
19:00 +5°C° 0.2 mm 2 mps 689 mmHg 90%
20:00 +5°C° 0.2 mm 2 mps 690 mmHg 90%
21:00 +4°C° 0.2 mm 2 mps 690 mmHg 90%
22:00 +4°C° 0.2 mm 2 mps 690 mmHg 89%
23:00 +4°C° 0.2 mm 2 mps 690 mmHg 89%

Day after tomorrow, 4 March, Thursday

Time Temperature Precipitation Wind Pressure Humidity
00:00 +4°C° 0 mm 2 mps 690 mmHg 87%
01:00 +5°C° 0 mm 1 mps 690 mmHg 85%
02:00 +5°C° 0 mm 1 mps 690 mmHg 84%
03:00 +5°C° 0 mm 1 mps 690 mmHg 82%
04:00 +5°C° 0 mm 1 mps 690 mmHg 80%
05:00 +5°C° 0 mm 1 mps 690 mmHg 78%
06:00 +5°C° 0 mm 1 mps 690 mmHg 77%
07:00 +6°C° 0 mm 1 mps 691 mmHg 75%
08:00 +6°C° 0 mm 1 mps 691 mmHg 74%
09:00 +7°C° 0 mm 1 mps 691 mmHg 71%
10:00 +8°C° 0 mm 1 mps 690 mmHg 69%
11:00 +9°C° 0 mm 1 mps 690 mmHg 66%
12:00 +9°C° 0 mm 1 mps 690 mmHg 67%
13:00 +9°C° 0 mm 1 mps 689 mmHg 68%
14:00 +10°C° 0 mm 1 mps 689 mmHg 68%
15:00 +9°C° 0 mm 2 mps 689 mmHg 70%
16:00 +9°C° 0 mm 2 mps 690 mmHg 71%
17:00 +8°C° 0 mm 2 mps 690 mmHg 73%
18:00 +8°C° 0.1 mm 2 mps 690 mmHg 75%
19:00 +7°C° 0.1 mm 2 mps 691 mmHg 78%
20:00 +7°C° 0.1 mm 2 mps 691 mmHg 80%
21:00 +6°C° 0.3 mm 2 mps 691 mmHg 81%
22:00 +6°C° 0.3 mm 2 mps 691 mmHg 82%
23:00 +6°C° 0.3 mm 2 mps 691 mmHg 83%

5 March, Friday

Time Temperature Precipitation Wind Pressure Humidity
00:00 +6°C° 1.5 mm 2 mps 691 mmHg 86%
01:00 +5°C° 1.5 mm 2 mps 690 mmHg 90%
02:00 +5°C° 1.5 mm 2 mps 690 mmHg 93%
03:00 +5°C° 1.1 mm 2 mps 690 mmHg 92%
04:00 +5°C° 1.1 mm 2 mps 691 mmHg 91%
05:00 +5°C° 1.1 mm 2 mps 691 mmHg 90%
06:00 +5°C° 1.1 mm 2 mps 692 mmHg 90%
07:00 +4°C° 1.1 mm 3 mps 692 mmHg 89%
08:00 +4°C° 1.1 mm 3 mps 693 mmHg 89%
09:00 +5°C° 0.6 mm 3 mps 693 mmHg 87%
10:00 +6°C° 0.6 mm 2 mps 693 mmHg 85%
11:00 +7°C° 0.6 mm 1 mps 693 mmHg 83%
12:00 +7°C° 0 mm 2 mps 693 mmHg 78%
13:00 +8°C° 0 mm 2 mps 692 mmHg 74%
14:00 +9°C° 0 mm 3 mps 692 mmHg 69%
15:00 +9°C° 0 mm 3 mps 692 mmHg 68%
16:00 +9°C° 0 mm 3 mps 692 mmHg 66%
17:00 +9°C° 0 mm 3 mps 692 mmHg 65%
18:00 +8°C° 0 mm 3 mps 692 mmHg 64%
19:00 +7°C° 0 mm 2 mps 693 mmHg 63%
20:00 +6°C° 0 mm 2 mps 693 mmHg 62%
21:00 +5°C° 0 mm 2 mps 693 mmHg 61%
22:00 +5°C° 0 mm 2 mps 693 mmHg 61%
23:00 +5°C° 0 mm 2 mps 693 mmHg 60%

6 March, Saturday

Time Temperature Precipitation Wind Pressure Humidity
00:00 +4°C° 0 mm 2 mps 693 mmHg 58%
01:00 +4°C° 0 mm 2 mps 692 mmHg 57%
02:00 +3°C° 0 mm 3 mps 692 mmHg 55%
03:00 +2°C° 0 mm 3 mps 691 mmHg 55%
04:00 +2°C° 0 mm 3 mps 690 mmHg 54%
05:00 +2°C° 0 mm 3 mps 690 mmHg 53%
06:00 +3°C° 0 mm 3 mps 690 mmHg 52%
07:00 +3°C° 0 mm 3 mps 689 mmHg 51%
08:00 +4°C° 0 mm 4 mps 689 mmHg 51%
09:00 +5°C° 0 mm 3 mps 688 mmHg 48%
10:00 +8°C° 0 mm 3 mps 687 mmHg 45%
11:00 +10°C° 0 mm 3 mps 686 mmHg 42%
12:00 +11°C° 0 mm 3 mps 685 mmHg 41%
13:00 +11°C° 0 mm 3 mps 684 mmHg 40%
14:00 +12°C° 0 mm 3 mps 684 mmHg 40%
15:00 +12°C° 0 mm 2 mps 684 mmHg 41%
16:00 +12°C° 0 mm 2 mps 684 mmHg 43%
17:00 +10°C° 0 mm 2 mps 684 mmHg 45%
18:00 +9°C° 0 mm 2 mps 684 mmHg 48%
19:00 +8°C° 0 mm 2 mps 685 mmHg 51%
20:00 +7°C° 0 mm 2 mps 685 mmHg 54%
21:00 +7°C° 0 mm 2 mps 685 mmHg 54%
22:00 +8°C° 0 mm 1 mps 686 mmHg 54%
23:00 +8°C° 0 mm 1 mps 686 mmHg 54%

7 March, Sunday

Time Temperature Precipitation Wind Pressure Humidity
00:00 +8°C° 0 mm 1 mps 686 mmHg 55%
01:00 +8°C° 0 mm 1 mps 686 mmHg 57%
02:00 +6°C° 0 mm 2 mps 685 mmHg 58%
03:00 +7°C° 0 mm 1 mps 685 mmHg 58%
04:00 +7°C° 0 mm 1 mps 685 mmHg 58%
05:00 +7°C° 0 mm 1 mps 686 mmHg 59%
06:00 +7°C° 0 mm 1 mps 686 mmHg 59%
07:00 +7°C° 0 mm 1 mps 686 mmHg 59%
08:00 +8°C° 0 mm 1 mps 687 mmHg 58%
09:00 +8°C° 0 mm 1 mps 687 mmHg 56%
10:00 +9°C° 0 mm 1 mps 686 mmHg 53%
11:00 +10°C° 0 mm 1 mps 686 mmHg 51%
12:00 +11°C° 0 mm 1 mps 686 mmHg 51%
13:00 +10°C° 0 mm 2 mps 685 mmHg 52%
14:00 +10°C° 0 mm 2 mps 685 mmHg 53%
15:00 +10°C° 0 mm 2 mps 685 mmHg 54%
16:00 +10°C° 0 mm 2 mps 686 mmHg 56%
17:00 +11°C° 0 mm 1 mps 686 mmHg 58%
18:00 +10°C° 0 mm 1 mps 686 mmHg 61%
19:00 +9°C° 0 mm 1 mps 687 mmHg 65%
20:00 +8°C° 0 mm 1 mps 688 mmHg 69%
21:00 +8°C° 0 mm 1 mps 688 mmHg 69%
22:00 +7°C° 0 mm 1 mps 688 mmHg 70%
23:00 +7°C° 0 mm 1 mps 688 mmHg 70%
Show more